TimePST,TemperatureF,Dew PointF,Humidity,Sea Level PressureIn,VisibilityMPH,Wind Direction,Wind SpeedMPH,Gust SpeedMPH,PrecipitationIn,Events,Conditions,WindDirDegrees,DateUTC
12:15 AM,23.0,15.8,74,30.34,10.0,Calm,Calm,-,N/A,,Clear,0,2014-01-02 08:15:00
12:35 AM,23.0,15.8,74,30.33,10.0,Calm,Calm,-,N/A,,Clear,0,2014-01-02 08:35:00
12:55 AM,21.2,15.8,80,30.33,10.0,Calm,Calm,-,N/A,,Clear,0,2014-01-02 08:55:00
1:15 AM,19.4,14.0,80,30.33,10.0,Calm,Calm,-,N/A,,Clear,0,2014-01-02 09:15:00
1:35 AM,19.4,12.2,74,30.33,10.0,Calm,Calm,-,N/A,,Clear,0,2014-01-02 09:35:00
1:55 AM,15.8,10.4,79,30.33,10.0,Calm,Calm,-,N/A,,Clear,0,2014-01-02 09:55:00
2:15 AM,15.8,12.2,86,30.34,10.0,Calm,Calm,-,N/A,,Clear,0,2014-01-02 10:15:00
2:35 AM,14.0,10.4,86,30.34,10.0,Calm,Calm,-,N/A,,Clear,0,2014-01-02 10:35:00
2:55 AM,19.4,14.0,80,30.33,10.0,North,3.5,-,N/A,,Clear,360,2014-01-02 10:55:00
3:15 AM,17.6,12.2,79,30.33,10.0,Calm,Calm,-,N/A,,Clear,0,2014-01-02 11:15:00
3:35 AM,12.2,8.6,85,30.32,10.0,NNW,3.5,-,N/A,,Clear,340,2014-01-02 11:35:00
3:55 AM,17.6,12.2,79,30.32,10.0,Calm,Calm,-,N/A,,Clear,0,2014-01-02 11:55:00
4:15 AM,15.8,12.2,86,30.32,10.0,Calm,Calm,-,N/A,,Clear,0,2014-01-02 12:15:00
4:35 AM,14.0,8.6,79,30.31,10.0,Calm,Calm,-,N/A,,Clear,0,2014-01-02 12:35:00
4:55 AM,15.8,12.2,86,30.31,10.0,Calm,Calm,-,N/A,,Clear,0,2014-01-02 12:55:00
5:15 AM,14.0,12.2,93,30.31,10.0,Calm,Calm,-,N/A,,Clear,0,2014-01-02 13:15:00
5:35 AM,14.0,8.6,79,30.31,10.0,Calm,Calm,-,N/A,,Clear,0,2014-01-02 13:35:00
5:55 AM,8.6,5.0,85,30.32,10.0,North,3.5,-,N/A,,Clear,10,2014-01-02 13:55:00
6:15 AM,12.2,10.4,92,30.31,10.0,Calm,Calm,-,N/A,,Clear,0,2014-01-02 14:15:00
6:35 AM,15.8,10.4,79,30.32,10.0,Calm,Calm,-,N/A,,Clear,0,2014-01-02 14:35:00
6:55 AM,8.6,6.8,92,30.32,10.0,Calm,Calm,-,N/A,,Clear,0,2014-01-02 14:55:00
7:15 AM,14.0,8.6,79,30.32,10.0,Calm,Calm,-,N/A,,Clear,0,2014-01-02 15:15:00
7:35 AM,10.4,5.0,79,30.33,10.0,Calm,Calm,-,N/A,,Clear,0,2014-01-02 15:35:00
7:55 AM,12.2,8.6,85,30.33,10.0,Calm,Calm,-,N/A,,Clear,0,2014-01-02 15:55:00
8:15 AM,21.2,14.0,74,30.33,10.0,Calm,Calm,-,N/A,,Clear,0,2014-01-02 16:15:00
8:35 AM,24.8,15.8,69,30.34,10.0,Calm,Calm,-,N/A,,Clear,0,2014-01-02 16:35:00
10:15 AM,39.2,17.6,42,30.34,10.0,Calm,Calm,-,N/A,,Clear,0,2014-01-02 18:15:00
10:35 AM,41.0,17.6,39,30.33,10.0,SE,8.1,-,N/A,,Clear,130,2014-01-02 18:35:00
10:55 AM,41.0,17.6,39,30.31,10.0,SE,5.8,-,N/A,,Clear,130,2014-01-02 18:55:00
11:15 AM,44.6,17.6,34,30.31,10.0,SE,4.6,-,N/A,,Clear,140,2014-01-02 19:15:00
11:35 AM,46.4,15.8,29,30.30,10.0,SSE,4.6,-,N/A,,Clear,150,2014-01-02 19:35:00
11:55 AM,50.0,15.8,26,30.29,10.0,SE,5.8,-,N/A,,Clear,140,2014-01-02 19:55:00
12:15 PM,51.8,15.8,24,30.27,10.0,ESE,5.8,-,N/A,,Clear,120,2014-01-02 20:15:00
12:35 PM,51.8,14.0,22,30.26,10.0,ESE,5.8,-,N/A,,Clear,120,2014-01-02 20:35:00
12:55 PM,53.6,14.0,21,30.25,10.0,ESE,5.8,-,N/A,,Clear,110,2014-01-02 20:55:00
1:15 PM,55.4,14.0,20,30.23,10.0,ESE,5.8,-,N/A,,Clear,110,2014-01-02 21:15:00
1:35 PM,55.4,14.0,20,30.23,10.0,ESE,6.9,-,N/A,,Clear,110,2014-01-02 21:35:00
1:55 PM,55.4,12.2,18,30.23,10.0,ESE,5.8,-,N/A,,Clear,110,2014-01-02 21:55:00
2:15 PM,55.4,14.0,20,30.22,10.0,ESE,4.6,-,N/A,,Clear,120,2014-01-02 22:15:00
2:35 PM,55.4,14.0,20,30.22,10.0,SE,6.9,-,N/A,,Clear,130,2014-01-02 22:35:00
2:55 PM,55.4,15.8,21,30.22,10.0,ESE,6.9,-,N/A,,Clear,120,2014-01-02 22:55:00
3:15 PM,53.6,15.8,22,30.22,10.0,ESE,8.1,-,N/A,,Clear,120,2014-01-02 23:15:00
3:35 PM,53.6,15.8,22,30.22,10.0,ESE,8.1,-,N/A,,Clear,110,2014-01-02 23:35:00
3:55 PM,50.0,15.8,26,30.22,10.0,ESE,8.1,-,N/A,,Clear,110,2014-01-02 23:55:00
4:15 PM,48.2,15.8,27,30.22,10.0,SE,4.6,-,N/A,,Clear,130,2014-01-03 00:15:00
4:35 PM,42.8,14.0,31,30.22,10.0,South,3.5,-,N/A,,Clear,180,2014-01-03 00:35:00
4:55 PM,41.0,14.0,33,30.23,10.0,SW,3.5,-,N/A,,Clear,220,2014-01-03 00:55:00
5:15 PM,39.2,14.0,36,30.23,10.0,Calm,Calm,-,N/A,,Clear,0,2014-01-03 01:15:00
5:35 PM,37.4,15.8,41,30.23,10.0,Calm,Calm,-,N/A,,Clear,0,2014-01-03 01:35:00
5:55 PM,37.4,17.6,45,30.24,10.0,Calm,Calm,-,N/A,,Clear,0,2014-01-03 01:55:00
6:15 PM,33.8,17.6,52,30.24,10.0,Calm,Calm,-,N/A,,Clear,0,2014-01-03 02:15:00
6:35 PM,35.6,17.6,48,30.24,10.0,North,3.5,-,N/A,,Clear,350,2014-01-03 02:35:00
6:55 PM,33.8,17.6,52,30.25,10.0,North,3.5,-,N/A,,Clear,360,2014-01-03 02:55:00
7:15 PM,30.2,15.8,55,30.25,10.0,Calm,Calm,-,N/A,,Clear,0,2014-01-03 03:15:00
7:35 PM,32.0,17.6,55,30.25,10.0,Calm,Calm,-,N/A,,Clear,0,2014-01-03 03:35:00
7:55 PM,30.2,15.8,55,30.26,10.0,Calm,Calm,-,N/A,,Clear,0,2014-01-03 03:55:00
8:15 PM,26.6,14.0,59,30.26,10.0,NNW,3.5,-,N/A,,Clear,340,2014-01-03 04:15:00
8:35 PM,28.4,15.8,59,30.26,10.0,Calm,Calm,-,N/A,,Clear,0,2014-01-03 04:35:00
8:55 PM,28.4,15.8,59,30.26,10.0,Calm,Calm,-,N/A,,Clear,0,2014-01-03 04:55:00
9:15 PM,26.6,15.8,64,30.27,10.0,Calm,Calm,-,N/A,,Clear,0,2014-01-03 05:15:00
9:35 PM,24.8,14.0,64,30.26,10.0,NW,4.6,-,N/A,,Clear,320,2014-01-03 05:35:00
9:55 PM,23.0,14.0,68,30.26,10.0,Calm,Calm,-,N/A,,Clear,0,2014-01-03 05:55:00
10:15 PM,26.6,15.8,64,30.26,10.0,Calm,Calm,-,N/A,,Clear,0,2014-01-03 06:15:00
10:35 PM,24.8,15.8,69,30.26,10.0,NNW,3.5,-,N/A,,Clear,330,2014-01-03 06:35:00
10:55 PM,24.8,15.8,69,30.25,10.0,Calm,Calm,-,N/A,,Clear,0,2014-01-03 06:55:00
11:15 PM,24.8,15.8,69,30.25,10.0,Calm,Calm,-,N/A,,Clear,0,2014-01-03 07:15:00
11:35 PM,23.0,14.0,68,30.24,10.0,NNW,3.5,-,N/A,,Clear,330,2014-01-03 07:35:00
11:55 PM,23.0,15.8,74,30.23,10.0,Calm,Calm,-,N/A,,Clear,0,2014-01-03 07:55:00